[[{"header":{"parameterUnit":"m.s-1","parameterCategory":1,"la1":30.2991,"la2":30.254,"lo1":-89.0895,"lo2":-89.0444,"dy":0.0017,"dx":0.0017,"nx":28,"ny":28,"refTime":"2025-05-30T03:00:00:Z","depth":0,"parameterNumber":2,"parameterNumberName":"U-component_of_WINDS"},"data":[0,0,0,0,0,0,0,0,0,0,0,0,0,0,0,0,0,0,0,0,0,0,0,0,0,0,0,0,0,0,0,0,0,0,0,0,0,0,0,0,0,0,0,0,0,0,0,0,0,0,0,0,0,0,0,0,0,0,2.1445,2.1446,0,2.1519,2.1519,2.152,2.1478,2.1476,2.1474,2.1472,2.1549,2.1552,2.1556,0,0,0,0,0,0,0,0,0,0,0,0,0,2.127,2.1274,2.1445,2.1446,2.1447,2.1518,2.152,2.1521,2.1478,2.1476,2.1473,2.1471,2.1547,2.1552,2.1557,0,0,0,0,0,0,0,0,0,0,0,0,0,2.1345,2.1275,2.1445,2.1435,2.1434,2.1518,2.152,2.1521,2.1479,2.1476,2.1473,2.147,2.1546,2.1551,2.1557,2.1656,0,0,2.1575,2.1578,0,0,0,0,0,0,0,0,2.1341,2.1352,2.1435,2.1435,2.1435,2.1486,2.1486,2.1566,2.148,2.1462,2.1472,2.1468,2.153,2.1537,2.1558,2.166,2.1663,2.1576,2.158,2.1582,2.1584,0,0,0,0,0,0,0,2.1336,2.1348,2.1474,2.1436,2.1437,2.1427,2.1434,2.1501,2.1513,2.1463,2.1461,2.147,2.153,2.1552,2.1559,2.1664,2.1576,2.1581,2.1585,2.1587,2.1851,2.1854,0,0,0,0,0,0,2.1331,2.1344,2.1472,2.1476,2.138,2.1433,2.1441,2.1473,2.1512,2.1515,2.1472,2.1468,2.1544,2.1553,2.1562,2.168,2.1582,2.1588,2.1591,2.1847,2.1852,2.1855,0,0,0,0,0,0,2.1328,2.1343,2.1469,2.141,2.1425,2.1439,2.1475,2.1476,2.1498,2.1519,2.1521,2.1493,2.1542,2.1554,2.1633,2.1682,2.159,2.1596,2.1843,2.1849,2.1853,2.1916,0,0,0,0,0,0,2.1323,2.1342,2.1379,2.1411,2.1428,2.1538,2.1478,2.148,2.1509,2.1503,2.1539,2.1541,2.154,2.1624,2.1639,2.1688,2.16,2.1839,2.1846,2.1852,2.191,2.1923,2.1934,0,0,0,0,0,2.1317,2.1394,2.1381,2.1397,2.1475,2.1541,2.1551,2.1547,2.1513,2.155,2.1564,2.154,2.1675,2.1633,2.1649,2.1701,2.1836,2.1844,2.1851,2.1904,2.192,2.1934,0,0,0,0,0,0,2.1368,2.1398,2.1384,2.1474,2.1505,2.1534,2.1581,2.1564,2.1607,2.16,2.1594,2.1603,2.1685,2.1701,2.1654,2.1799,2.175,2.1761,2.1785,2.18,2.1812,2.1806,2.1605,0,0,0,0,0,2.1389,2.144,2.1464,2.1541,2.1557,2.1567,2.1595,2.159,2.1623,2.1636,2.1655,2.1688,2.1737,2.177,2.1817,2.1913,2.192,2.1957,2.1969,2.1979,2.1988,2.204,2.2057,2.1881,2.1881,2.1881,0,0,2.1434,2.1457,2.149,2.1552,2.1575,2.1628,2.1578,2.1636,2.1676,2.1645,2.172,2.1736,2.1772,2.1861,2.19,2.1876,2.2039,2.1989,2.1996,2.2,2.205,2.2067,2.2081,2.1886,2.1885,2.1884,0,0,2.1543,2.1566,2.1632,2.1657,2.1694,2.17,2.1716,2.1748,2.1757,2.1833,2.1811,2.1858,2.1944,2.1971,2.1996,2.2117,2.2097,2.2133,2.2195,2.2246,2.226,2.2272,2.2315,2.2331,2.2142,2.2142,2.2143,0,2.1595,2.1673,2.1669,2.1729,2.1757,2.1732,2.1799,2.1824,2.1874,2.1895,2.1867,2.1975,2.1997,2.2091,2.2121,2.2143,2.2161,2.2127,2.2259,2.2271,2.2282,2.2323,2.2339,2.2146,2.2146,2.2145,2.2145,0,2.1734,2.179,2.1839,2.1888,2.1922,2.1986,2.1991,2.2026,2.2019,2.2028,2.2106,2.2133,2.2185,2.2208,2.2201,2.2301,2.2285,2.2259,2.2209,2.2303,2.2341,2.2357,2.2152,2.2151,2.2149,2.2148,0,0,2.1875,2.1922,2.194,2.1962,2.2002,2.2044,2.2108,2.2158,2.2188,2.2225,2.2277,2.2351,2.2327,2.2355,2.2352,2.2397,2.2491,2.2365,2.2366,2.2387,2.2603,2.2622,2.264,2.2479,2.2482,2.2485,2.26,0,2.1986,2.2095,2.2094,2.2195,2.2246,2.2224,2.2279,2.231,2.2321,2.2366,2.2379,2.2431,2.2395,2.2412,2.2456,2.247,2.2534,2.2462,2.2528,2.253,2.2518,2.266,2.268,2.2788,2.2615,2.2618,2.2619,0,2.2129,2.217,2.2276,2.2309,2.233,2.238,2.2426,2.247,2.2505,2.251,2.2543,2.2532,2.2597,2.2548,2.2637,2.2588,2.2616,2.2627,2.2631,2.2636,2.2579,2.2668,2.2822,2.2838,2.2643,2.2641,2.2639,0,2.222,2.2302,2.2376,2.2396,2.2436,2.2471,2.249,2.2522,2.2553,2.2594,2.2614,2.2663,2.2689,2.2727,2.2731,2.2695,2.2822,2.2772,2.2827,2.2827,2.2853,2.2852,2.3013,2.2874,2.2873,2.2873,2.2873,0,2.2343,2.2409,2.2418,2.2463,2.2537,2.2535,2.2608,2.2624,2.2653,2.2701,2.2686,2.2732,2.2735,2.2783,2.2787,2.286,2.2873,2.2879,2.2878,2.2879,2.2878,2.2896,2.2888,2.2877,2.2876,2.2876,2.2875,0,2.2456,2.2465,2.2544,2.2576,2.2586,2.2639,2.2666,2.271,2.272,2.2782,2.2797,2.2813,2.2868,2.2876,2.2942,2.2944,2.3032,2.3025,2.302,2.3019,2.3073,2.3068,2.3251,2.3274,2.312,2.3122,2.3123,0,2.2533,2.2583,2.2621,2.2652,2.2673,2.2723,2.2755,2.2756,2.279,2.2834,2.2873,2.2927,2.297,2.306,2.3078,2.3128,2.3121,2.3182,2.3128,2.3128,2.3121,2.3117,2.3122,2.3192,2.3193,2.3195,2.3196,0,2.2669,2.2671,2.2716,2.2764,2.2802,2.284,2.2875,2.2902,2.2908,2.2947,2.3003,2.3037,2.3104,2.3158,2.3208,2.3227,2.3213,2.3213,2.3228,2.3228,2.3223,2.3226,2.3047,2.3208,2.3207,2.3206,2.3205,2.3205,2.2766,2.2809,2.2843,2.2894,2.2921,2.2955,2.2998,2.3014,2.3061,2.3115,2.3113,2.3175,2.321,2.3276,2.3299,2.3348,2.3329,2.3351,2.3356,2.3362,2.3367,2.3217,2.3358,2.3357,2.3357,2.3357,2.3357,0,2.29,2.2921,2.2968,2.3018,2.3059,2.3042,2.3081,2.3117,2.3171,2.3205,2.3248,2.3313,2.3366,2.3389,2.3441,2.3476,2.347,2.3489,2.3486,2.3491,2.3382,2.3363,2.3493,2.3493,2.3492,2.3492,2.3492,2.3492,2.2974,2.3047,2.3054,2.314,2.3161,2.3221,2.3245,2.3276,2.3303,2.3376,2.342,2.3434,2.3464,2.3518,2.3566,2.3571,2.3591,2.3613,2.3615,2.3512,2.3498,2.3485,2.3467,2.3617,2.3617,2.372,2.3721,2.3721]},{"header":{"parameterUnit":"m.s-1","parameterCategory":1,"la1":30.2991,"la2":30.254,"lo1":-89.0895,"lo2":-89.0444,"dy":0.0017,"dx":0.0017,"nx":28,"ny":28,"refTime":"2025-05-30T03:00:00:Z","depth":0,"parameterNumber":3,"parameterNumberName":"V-component_of_WINDS"},"data":[0,0,0,0,0,0,0,0,0,0,0,0,0,0,0,0,0,0,0,0,0,0,0,0,0,0,0,0,0,0,0,0,0,0,0,0,0,0,0,0,0,0,0,0,0,0,0,0,0,0,0,0,0,0,0,0,0,0,0.6373,0.6374,0,0.6477,0.6478,0.6479,0.6494,0.6493,0.6492,0.6491,0.6601,0.6605,0.6609,0,0,0,0,0,0,0,0,0,0,0,0,0,0.6191,0.6194,0.6373,0.6374,0.6375,0.6476,0.6478,0.6479,0.6494,0.6492,0.6491,0.649,0.66,0.6604,0.6609,0,0,0,0,0,0,0,0,0,0,0,0,0,0.628,0.6195,0.6372,0.6395,0.6398,0.6476,0.6478,0.648,0.6494,0.6492,0.6491,0.649,0.6598,0.6604,0.661,0.6675,0,0,0.6627,0.663,0,0,0,0,0,0,0,0,0.6275,0.6286,0.639,0.6393,0.6397,0.6471,0.6454,0.6545,0.6494,0.6457,0.6491,0.6489,0.6559,0.6568,0.6591,0.668,0.6684,0.6628,0.6631,0.6634,0.6635,0,0,0,0,0,0,0,0.6269,0.6282,0.6414,0.6391,0.6396,0.6401,0.6412,0.6472,0.6515,0.6461,0.6462,0.6474,0.6561,0.6585,0.6593,0.6686,0.6628,0.6633,0.6636,0.6638,0.6834,0.6836,0,0,0,0,0,0,0.6258,0.6277,0.6411,0.6417,0.6331,0.6405,0.6417,0.6448,0.6515,0.6523,0.6475,0.6474,0.6576,0.6587,0.6597,0.6678,0.6634,0.6639,0.6642,0.6833,0.6835,0.6837,0,0,0,0,0,0,0.6254,0.627,0.6406,0.6347,0.6365,0.641,0.6444,0.6451,0.6476,0.6525,0.6534,0.6492,0.6575,0.6589,0.6655,0.6682,0.6642,0.6647,0.683,0.6833,0.6836,0.684,0,0,0,0,0,0,0.6248,0.6268,0.6292,0.6348,0.6368,0.6461,0.6446,0.6454,0.6485,0.6485,0.6543,0.6552,0.6575,0.6646,0.6661,0.6689,0.6651,0.6828,0.6832,0.6835,0.6838,0.6842,0.6846,0,0,0,0,0,0.6242,0.629,0.6293,0.6309,0.6399,0.6463,0.6475,0.65,0.6487,0.6513,0.6545,0.655,0.6677,0.6653,0.6669,0.67,0.6827,0.6831,0.6834,0.6836,0.6841,0.6846,0,0,0,0,0,0,0.6238,0.6298,0.6302,0.6369,0.6411,0.6465,0.6498,0.6505,0.6552,0.655,0.658,0.6593,0.6657,0.6686,0.6658,0.6767,0.6751,0.6758,0.6746,0.6752,0.6756,0.6748,0.6656,0,0,0,0,0,0.6245,0.629,0.634,0.6395,0.6415,0.6453,0.6482,0.6497,0.6542,0.656,0.6597,0.6641,0.6691,0.6723,0.6772,0.6842,0.6855,0.6871,0.6875,0.6879,0.6885,0.6925,0.6932,0.6849,0.6849,0.6849,0,0,0.626,0.6298,0.6325,0.6395,0.6429,0.6477,0.6468,0.6518,0.6554,0.6568,0.6632,0.666,0.6712,0.678,0.6812,0.6805,0.6911,0.6884,0.6886,0.6891,0.6929,0.6937,0.6944,0.6852,0.6851,0.6851,0,0,0.6311,0.6344,0.6393,0.6427,0.6478,0.6503,0.6514,0.6568,0.6587,0.6651,0.6663,0.6707,0.6792,0.6828,0.6857,0.6922,0.6929,0.6937,0.6961,0.6999,0.7006,0.7012,0.7035,0.7043,0.6943,0.6943,0.6943,0,0.6324,0.6394,0.6418,0.6468,0.6499,0.6512,0.6563,0.6595,0.666,0.6682,0.6673,0.678,0.6816,0.6893,0.6908,0.6932,0.6947,0.6931,0.7002,0.7009,0.7015,0.7037,0.7046,0.6944,0.6944,0.6944,0.6944,0,0.6407,0.6456,0.649,0.655,0.6585,0.6636,0.6668,0.6701,0.6714,0.6739,0.6805,0.6848,0.6906,0.6925,0.6939,0.7005,0.6999,0.6996,0.6981,0.7023,0.7045,0.7054,0.6945,0.6945,0.6945,0.6944,0,0,0.6459,0.6532,0.6544,0.6572,0.6629,0.6668,0.6719,0.6774,0.6802,0.6846,0.6891,0.6962,0.696,0.6993,0.7011,0.7044,0.7093,0.7037,0.7039,0.7047,0.7169,0.7171,0.7181,0.7098,0.71,0.7101,0.7165,0,0.6517,0.6607,0.6631,0.6708,0.6754,0.6767,0.6812,0.6852,0.6878,0.6922,0.6951,0.7001,0.6994,0.7014,0.7048,0.708,0.7118,0.7076,0.7141,0.7143,0.7127,0.7192,0.7195,0.7253,0.7174,0.7175,0.7176,0,0.6597,0.6642,0.6723,0.6774,0.6794,0.6834,0.6886,0.6928,0.6974,0.6991,0.7028,0.7042,0.7097,0.7078,0.7155,0.7126,0.7154,0.7174,0.7177,0.7184,0.7162,0.7202,0.7272,0.7281,0.719,0.7189,0.7188,0,0.6627,0.6708,0.6767,0.679,0.6851,0.6879,0.6906,0.6951,0.6982,0.7029,0.705,0.7102,0.7131,0.7172,0.7201,0.7184,0.7275,0.7259,0.7291,0.7291,0.731,0.7309,0.7386,0.7328,0.7328,0.7327,0.7327,0,0.669,0.6739,0.6781,0.6817,0.6873,0.69,0.6955,0.6983,0.7023,0.7066,0.7081,0.7121,0.7156,0.7202,0.7225,0.7285,0.7298,0.7313,0.7319,0.7312,0.731,0.7331,0.7328,0.733,0.7329,0.7329,0.7328,0,0.6733,0.6763,0.6828,0.688,0.6894,0.6933,0.6979,0.7015,0.7041,0.7095,0.711,0.7151,0.7205,0.7237,0.7306,0.7322,0.7389,0.7392,0.7372,0.7375,0.7405,0.7402,0.7499,0.7514,0.7445,0.7446,0.7446,0,0.6771,0.6809,0.6865,0.6894,0.6921,0.6968,0.7,0.7028,0.7061,0.7117,0.7147,0.7202,0.7247,0.7333,0.737,0.7423,0.7428,0.7459,0.7436,0.7428,0.7429,0.7427,0.7431,0.7463,0.7463,0.7464,0.7464,0,0.6835,0.6848,0.6893,0.6943,0.6981,0.7022,0.7063,0.7087,0.7122,0.7158,0.7213,0.7248,0.7318,0.7373,0.7428,0.7458,0.7467,0.7471,0.7481,0.7475,0.7461,0.7469,0.7383,0.7468,0.7468,0.7468,0.7467,0.7467,0.6877,0.6912,0.6956,0.7006,0.704,0.7078,0.7114,0.7145,0.719,0.7248,0.7263,0.732,0.7367,0.7443,0.7473,0.7519,0.7515,0.753,0.7534,0.7537,0.7538,0.7454,0.753,0.753,0.753,0.753,0.753,0,0.6943,0.6972,0.7017,0.7074,0.7113,0.7117,0.7163,0.7196,0.7246,0.7288,0.7332,0.7395,0.7448,0.7489,0.7543,0.7573,0.7579,0.7586,0.7584,0.7591,0.7539,0.7524,0.7581,0.7581,0.7581,0.758,0.758,0.758,0.6981,0.704,0.7058,0.7134,0.7163,0.7219,0.7245,0.728,0.7314,0.7383,0.7427,0.7452,0.7494,0.7552,0.7601,0.7612,0.7632,0.7638,0.765,0.76,0.7595,0.759,0.7576,0.7642,0.7642,0.7699,0.7699,0.77]}]]